sat.trackr.live / text

‹ back to catalog

STPSAT-7

NORAD 68630 · 2026-074D

PAYLOAD ACTIVE UNKNOWN

§ Identity

Operator
Country
US
Launch date
2026-04-07
Launch site
AFWTR
Launch vehicle
Mass (kg)
RCS (m²)

External: N2YO · Heavens-Above · Gunter

§ Orbital elements

Epoch: 2026-09-19T05:50:48.811200Z

Period
94.40 min
Inclination
60.0210°
Eccentricity
0.0036070
Mean motion
15.25478031 rev/d
Perigee alt
464.6 km
Apogee alt
514.1 km
Semi-major
6,867.5 km
B*
1.9111e-4
RAAN
176.9039°
Arg perigee
89.8605°
Mean anomaly
270.6609°
Rev number
2,512

§ Raw data

STPSAT-71 68630U 26074D   26262.24362050  .00004669  00000+0  19111-3 0  99922 68630  60.0210 176.9039 0036070  89.8605 270.6609 15.25478031 25127

JSON: /api/v1/satellites/68630 · /tle

For live sub-satellite position, see the globe view (requires WebGL).

§ Visibility from observer

Set your observer location to see the next 7 days of passes ≥ 10°. The values pass through the URL so the page stays shareable.

No JS? Fill the form by hand. The geolocation button needs JavaScript.